Main page
METAR-TAF:

METAR-TAF

Airports :

Jackson Municipal Airport

Jackson, Minnesota, United States

latitude: 43-39N, longitude: 094-59W, elevation: 1446 ft

Current weather observation

The report was made 31 minutes ago, at 22:35 UTC
Wind 20 mph from the North/Northwest
Temperature 34°F
Humidity 75%
Pressure 29.92 in. Hg
Visibility: 10 miles
Overcast at a height of 2300 ft

METAR: KMJQ 232235Z AUTO 33017KT 10SM OVC023 01/M03 A2992 RMK AO2

Time: 17:06 (23:06 UTC)


TAF: missing

Weather observations and forecasts of more than 4000 airports (METAR and TAF reports).

The available stations are represented by yellow and red dots on the map.

Hover mouse over dot to see the name of the station.

Then click to see weather observations and forecasts.

To change the map : click on the green buttons with a black cross to zoom in, on the green button with a dash to zoom out, or on the green arrows for adjacent maps.


METAR-TAF: